Terminal Aerodrome Forecast
Issued by NWS Denver/Boulder, CO

Home | Current Version | Previous Version | Text Only | Print | Product List | Glossary On
Versions: 1 2 3 4 5 6 7 8 9 10 11 12 13 14 15 16 17 18 19 20 21 22 23 24 25 26 27 28 29 30 31 32 33 34 35 36 37 38 39 40 41 42 43 44 45 46 47 48 49 50
000
FTUS45 KBOU 311139
TAFDEN
TAF
KDEN 311139Z 3112/0118 18007KT P6SM FEW130 BKN200
     FM311400 28009KT P6SM SCT080 BKN130
     FM311900 35012G20KT P6SM VCTS SCT080CB BKN130
      TEMPO 3119/3123 VRB18G30KT BKN080CB
     FM010000 35012KT P6SM SCT080 SCT130
     FM010500 VRB05KT P6SM SCT100=

USA.gov is the U.S. government's official web portal to all federal, state and local government web resources and services.